Location: Azul
(36.7830°S, 59.8500°W)
Time: 17:15:01
(UTC-03:00)

AO-109 - Pass Details

Date: 01 November 2021
Orbit: 474 x 522 km, 60.7° (Epoch: 06 December)

Event Time Altitude Azimuth Distance (km) Brightness Sun altitude
Rises 21:47:44 0° 295° (WNW) 2,605 ? -24.0°
Reaches altitude 10° 21:50:12 10° 280° (W) 1,737 ? -24.3°
Maximum altitude 21:53:23 24° 225° (SW) 1,124 ? -24.8°
Drops below altitude 10° 21:56:39 10° 170° (S) 1,774 ? -25.3°
Sets 21:59:13 0° 155° (SSE) 2,676 ? -25.6°
